FW8987 Weather Reports


Display with metric or nautical units.
time (UTC)temp
F
wind
direction
speed
MPH
gust
MPH
rain 1hr
in
rain 24hr
in
rain mn
in
humidity
%
barometer
mb
20260506032035 26 171 0.0 1.0 0.00 0.01 0.00 94 1012.9
20260506031030 25 0.0 0.0 0.00 0.01 0.00 93 1012.8
20260506030026 26 0.0 0.0 0.00 0.01 0.00 92 1012.8
20260506025041 27 0.0 0.0 0.00 0.01 0.00 91 1012.7
20260506024017 27 169 1.0 1.0 0.00 0.01 0.00 90 1012.8
20260506023032 28 0.0 0.0 0.00 0.01 0.00 90 1012.7
20260506022027 28 0.0 0.0 0.00 0.01 0.00 89 1012.7
20260506021022 28 0.0 0.0 0.00 0.01 0.00 87 1012.4
20260506020058 29 0.0 0.0 0.00 0.01 0.00 86 1012.5
20260506015033 30 175 0.0 1.0 0.00 0.01 0.00 84 1012.4
20260506014029 30 215 1.0 2.0 0.00 0.01 0.00 82 1012.2
20260506013043 30 222 0.0 2.0 0.00 0.01 0.00 83 1012.1
20260506012039 30 208 0.0 2.0 0.00 0.01 0.00 83 1012.1
20260506011115 31 195 0.0 2.0 0.00 0.01 0.00 80 1012.1
20260506010049 33 223 1.0 2.0 0.00 0.01 0.00 77 1012.0
20260506005025 33 249 2.0 4.0 0.00 0.01 0.00 75 1011.9
20260506004020 33 232 1.0 3.0 0.00 0.01 0.00 76 1011.8
20260506003056 33 232 2.0 3.0 0.00 0.01 0.00 76 1011.7
20260506002031 33 226 2.0 3.0 0.00 0.01 0.00 77 1011.4
20260506001027 33 226 1.0 2.0 0.00 0.01 0.00 77 1011.5
20260506000022 33 211 0.0 1.0 0.00 0.01 0.00 78 1011.4
20260505235018 33 213 0.0 1.0 0.00 0.02 0.00 78 1011.2
20260505234033 34 219 1.0 2.0 0.00 0.03 0.00 77 1011.3
20260505233048 34 244 2.0 3.0 0.00 0.04 0.00 77 1011.1
20260505232024 34 228 1.0 3.0 0.00 0.06 0.00 76 1011.2
20260505231040 34 219 1.0 2.0 0.00 0.07 0.00 75 1011.0
20260505230035 34 215 1.0 3.0 0.00 0.11 0.00 76 1011.0
20260505225030 34 236 2.0 3.0 0.00 0.15 0.00 75 1011.1
20260505224025 34 237 1.0 3.0 0.00 0.19 0.00 76 1011.2
20260505223020 35 239 1.0 3.0 0.00 0.23 0.00 75 1011.0
20260505222016 35 226 1.0 3.0 0.00 0.26 0.00 74 1010.9
20260505221032 35 230 2.0 4.0 0.00 0.30 0.00 74 1010.9
20260505220027 35 246 2.0 7.0 0.00 0.34 0.34 73 1010.8
20260505215023 36 193 1.0 2.0 0.00 0.36 0.34 73 1010.7
20260505214018 37 246 2.0 7.0 0.00 0.37 0.34 71 1010.6
20260505213034 37 243 2.0 4.0 0.00 0.38 0.34 71 1010.6
20260505212028 36 227 1.0 2.0 0.00 0.40 0.34 72 1010.5
20260505211024 38 234 2.0 4.0 0.00 0.40 0.34 69 1010.3
20260505210039 38 207 0.0 1.0 0.00 0.40 0.34 69 1010.1
20260505205035 38 229 1.0 2.0 0.00 0.40 0.34 68 1010.1
20260505204030 38 222 2.0 3.0 0.00 0.40 0.34 67 1010.1
20260505203025 38 248 2.0 6.0 0.00 0.40 0.34 66 1009.9
20260505202021 39 232 2.0 4.0 0.00 0.40 0.34 64 1010.0
20260505201017 39 258 2.0 4.0 0.00 0.40 0.34 63 1009.8
20260505200032 39 254 4.0 8.0 0.00 0.40 0.34 61 1009.9
20260505195028 39 237 3.0 6.0 0.00 0.40 0.34 63 1010.0
20260505194022 38 214 1.0 2.0 0.00 0.40 0.34 67 1009.8
20260505193018 37 205 1.0 1.0 0.00 0.40 0.34 70 1009.8
20260505192033 38 0.0 0.0 0.00 0.40 0.34 66 1009.6
20260505191028 38 0.0 0.0 0.00 0.40 0.34 66 1009.6
20260505190023 39 0.0 0.0 0.00 0.40 0.34 63 1009.3
20260505185019 40 206 0.0 1.0 0.00 0.40 0.34 61 1009.4
20260505184033 41 215 0.0 2.0 0.00 0.40 0.34 59 1009.2
20260505183029 42 222 2.0 3.0 0.00 0.40 0.34 56 1009.2
20260505182025 42 260 2.0 6.0 0.00 0.40 0.34 55 1009.0
20260505181021 43 252 4.0 6.0 0.00 0.40 0.34 54 1009.1
20260505180016 43 258 3.0 8.0 0.00 0.40 0.34 53 1009.1
20260505175031 44 250 3.0 7.0 0.00 0.40 0.34 51 1009.1
20260505174026 44 232 1.0 4.0 0.00 0.40 0.34 48 1008.8
20260505173042 45 238 1.0 4.0 0.00 0.40 0.34 49 1008.8
20260505172017 46 273 2.0 6.0 0.00 0.40 0.34 48 1008.7
20260505171114 46 237 2.0 7.0 0.00 0.40 0.34 50 1008.8
20260505170049 47 252 4.0 11.0 0.00 0.40 0.34 49 1008.8
20260505165024 47 280 5.0 11.0 0.00 0.40 0.34 45 1008.4
20260505164120 46 228 2.0 4.0 0.00 0.40 0.34 47 1008.2
20260505163036 46 229 1.0 3.0 0.00 0.40 0.34 46 1008.3
20260505162031 47 272 3.0 6.0 0.00 0.40 0.34 44 1008.2
20260505161026 48 260 5.0 9.0 0.00 0.40 0.34 41 1007.9
20260505153027 49 256 7.0 14.0 0.00 0.40 0.34 39 1007.8
20260505152023 48 256 5.0 9.0 0.00 0.40 0.34 45 1008.0
20260505151018 46 249 8.0 14.0 0.00 0.40 0.34 49 1008.0
20260505125033 46 230 4.0 7.0 0.00 0.41 0.34 54 1007.4
20260505124028 45 245 4.0 9.0 0.00 0.41 0.34 56 1007.3
20260505123024 45 233 4.0 13.0 0.00 0.41 0.34 56 1007.4
20260505122020 47 234 6.0 13.0 0.00 0.41 0.34 53 1007.4
20260505121035 45 247 5.0 10.0 0.00 0.41 0.34 57 1007.4
20260505120030 44 226 3.0 8.0 0.00 0.41 0.34 63 1007.3
20260505115026 43 238 5.0 11.0 0.00 0.41 0.34 64 1007.3
20260505114021 44 251 7.0 14.0 0.00 0.41 0.34 59 1007.3
20260505113022 43 240 5.0 11.0 0.00 0.41 0.34 65 1007.2
20260505112032 46 262 7.0 15.0 0.00 0.41 0.34 54 1007.0
20260505111028 48 249 4.0 8.0 0.00 0.41 0.34 49 1006.7
20260505102046 47 249 6.0 10.0 0.00 0.41 0.34 52 1006.7
20260505101020 46 256 5.0 10.0 0.00 0.41 0.34 52 1006.7
20260505100017 48 241 2.0 4.0 0.00 0.41 0.34 52 1006.5
20260505095031 47 251 6.0 10.0 0.00 0.41 0.34 50 1006.7
20260505094148 45 280 6.0 17.0 0.00 0.41 0.34 54 1006.6
20260505093022 46 277 4.0 9.0 0.00 0.41 0.34 52 1006.6
20260505092017 45 251 3.0 6.0 0.00 0.41 0.34 55 1006.6
20260505091034 46 258 4.0 9.0 0.00 0.41 0.34 54 1006.6
20260505090029 45 276 4.0 8.0 0.00 0.41 0.34 54 1006.6
20260505085044 44 258 4.0 9.0 0.00 0.41 0.34 56 1006.5
20260505084024 45 277 4.0 7.0 0.00 0.41 0.34 56 1006.3
20260505083035 46 252 5.0 13.0 0.00 0.41 0.34 55 1006.3
20260505082031 45 280 3.0 8.0 0.00 0.41 0.34 56 1006.3
20260505081027 44 259 3.0 8.0 0.00 0.41 0.34 57 1006.1
20260505080022 44 274 4.0 10.0 0.00 0.41 0.34 60 1006.0
20260505075017 44 277 5.0 11.0 0.00 0.41 0.34 61 1006.1
20260505074033 43 246 4.0 11.0 0.00 0.41 0.34 62 1006.0
20260505073027 43 275 5.0 11.0 0.00 0.41 0.34 63 1005.8
20260505072023 43 257 3.0 7.0 0.00 0.41 0.34 64 1005.9
20260505071017 42 280 5.0 13.0 0.00 0.41 0.34 65 1005.8
20260505070033 43 271 3.0 8.0 0.00 0.41 0.34 66 1005.7
20260505065029 42 212 2.0 4.0 0.00 0.41 0.34 67 1005.7
20260505064025 42 243 3.0 7.0 0.00 0.41 0.34 70 1005.6
20260505063020 41 239 2.0 4.0 0.00 0.41 0.34 72 1005.6
20260505062035 40 267 5.0 8.0 0.00 0.41 0.34 76 1005.6
20260505061030 40 266 3.0 7.0 0.00 0.41 0.34 77 1005.5
20260505060025 39 265 3.0 6.0 0.01 0.41 0.34 78 1005.4
20260505055020 39 261 5.0 11.0 0.01 0.41 0.34 78 1005.2
20260505054016 38 247 3.0 7.0 0.01 0.41 0.34 80 1005.2
20260505053031 38 249 3.0 9.0 0.01 0.41 0.34 81 1005.3
20260505052025 38 253 4.0 8.0 0.01 0.41 0.34 82 1005.0
20260505051020 37 256 4.0 9.0 0.01 0.41 0.34 83 1004.9
20260505041033 35 255 4.0 8.0 0.00 0.40 0.33 93 1004.3
20260505040048 35 241 3.0 6.0 0.00 0.40 0.33 94 1004.2
20260505035023 35 249 3.0 7.0 0.00 0.40 0.33 98 1004.1
20260505034119 35 246 3.0 4.0 0.00 0.40 0.33 99 1003.9
20260505033034 34 250 3.0 6.0 0.00 0.40 0.33 99 1003.9